Year,Month,Day,Hour,Minute,Value (Times are PST for temperature in C)
2014,08,23,00,00,17.60
2014,08,23,00,01,17.60
2014,08,23,00,02,17.60
2014,08,23,00,03,17.50
2014,08,23,00,04,17.50
2014,08,23,00,05,17.40
2014,08,23,00,06,17.30
2014,08,23,00,07,17.30
2014,08,23,00,08,17.20
2014,08,23,00,09,17.20
2014,08,23,00,10,17.10
2014,08,23,00,11,17.10
2014,08,23,00,12,17.10
2014,08,23,00,13,17.00
2014,08,23,00,14,17.00
2014,08,23,00,15,16.90
2014,08,23,00,16,16.90
2014,08,23,00,17,16.90
2014,08,23,00,18,16.90
2014,08,23,00,19,16.80
2014,08,23,00,20,16.80
2014,08,23,00,21,16.80
2014,08,23,00,22,16.80
2014,08,23,00,23,16.70
2014,08,23,00,24,16.70
2014,08,23,00,25,16.70
2014,08,23,00,26,16.70
2014,08,23,00,27,16.60
2014,08,23,00,28,16.60
2014,08,23,00,29,16.60
2014,08,23,00,30,16.60
2014,08,23,00,31,16.70
2014,08,23,00,32,16.70
2014,08,23,00,33,16.70
2014,08,23,00,34,16.70
2014,08,23,00,35,16.70
2014,08,23,00,36,16.60
2014,08,23,00,37,16.60
2014,08,23,00,38,16.60
2014,08,23,00,39,16.50
2014,08,23,00,40,16.50
2014,08,23,00,41,16.40
2014,08,23,00,42,16.40
2014,08,23,00,43,16.40
2014,08,23,00,44,16.40
2014,08,23,00,45,16.40
2014,08,23,00,46,16.40
2014,08,23,00,47,16.40
2014,08,23,00,48,16.40
2014,08,23,00,49,16.40
2014,08,23,00,50,16.40
2014,08,23,00,51,16.50
2014,08,23,00,52,16.50
2014,08,23,00,53,16.50
2014,08,23,00,54,16.50
2014,08,23,00,55,16.50
2014,08,23,00,56,16.50
2014,08,23,00,57,16.60
2014,08,23,00,58,16.60
2014,08,23,00,59,16.60
2014,08,23,01,00,16.60
2014,08,23,01,01,16.70
2014,08,23,01,02,16.70
2014,08,23,01,03,16.70
2014,08,23,01,04,16.70
2014,08,23,01,05,16.70
2014,08,23,01,06,16.70
2014,08,23,01,07,16.80
2014,08,23,01,08,16.80
2014,08,23,01,09,16.80
2014,08,23,01,10,16.80
2014,08,23,01,11,16.80
2014,08,23,01,12,16.80
2014,08,23,01,13,16.80
2014,08,23,01,14,16.80
2014,08,23,01,15,16.70
2014,08,23,01,16,16.70
2014,08,23,01,17,16.70
2014,08,23,01,18,16.70
2014,08,23,01,19,16.70
2014,08,23,01,20,16.70
2014,08,23,01,21,16.70
2014,08,23,01,22,16.70
2014,08,23,01,23,16.70
2014,08,23,01,24,16.60
2014,08,23,01,25,16.60
2014,08,23,01,26,16.60
2014,08,23,01,27,16.60
2014,08,23,01,28,16.60
2014,08,23,01,29,16.50
2014,08,23,01,30,16.50
2014,08,23,01,31,16.50
2014,08,23,01,32,16.40
2014,08,23,01,33,16.40
2014,08,23,01,34,16.40
2014,08,23,01,35,16.40
2014,08,23,01,36,16.30
2014,08,23,01,37,16.30
2014,08,23,01,38,16.30
2014,08,23,01,39,16.20
2014,08,23,01,40,16.20
2014,08,23,01,41,16.10
2014,08,23,01,42,16.10
2014,08,23,01,43,16.10
2014,08,23,01,44,16.00
2014,08,23,01,45,16.00
2014,08,23,01,46,15.90
2014,08,23,01,47,15.90
2014,08,23,01,48,15.90
2014,08,23,01,49,15.90
2014,08,23,01,50,15.90
2014,08,23,01,51,16.00
2014,08,23,01,52,16.00
2014,08,23,01,53,16.10
2014,08,23,01,54,16.20
2014,08,23,01,55,16.10
2014,08,23,01,56,16.10
2014,08,23,01,57,16.10
2014,08,23,01,58,16.10
2014,08,23,01,59,16.10
2014,08,23,02,00,16.10
2014,08,23,02,01,16.00
2014,08,23,02,02,16.00
2014,08,23,02,03,16.00
2014,08,23,02,04,16.00
2014,08,23,02,05,16.00
2014,08,23,02,06,16.00
2014,08,23,02,07,16.00
2014,08,23,02,08,16.10
2014,08,23,02,09,16.30
2014,08,23,02,10,16.40
2014,08,23,02,11,16.50
2014,08,23,02,12,16.60
2014,08,23,02,13,16.60
2014,08,23,02,14,16.70
2014,08,23,02,15,16.70
2014,08,23,02,16,16.80
2014,08,23,02,17,16.80
2014,08,23,02,18,16.90
2014,08,23,02,19,17.00
2014,08,23,02,20,17.10
2014,08,23,02,21,17.20
2014,08,23,02,22,17.20
2014,08,23,02,23,17.10
2014,08,23,02,24,17.10
2014,08,23,02,25,17.00
2014,08,23,02,26,17.00
2014,08,23,02,27,17.00
2014,08,23,02,28,17.00
2014,08,23,02,29,17.10
2014,08,23,02,30,17.20
2014,08,23,02,31,17.30
2014,08,23,02,32,17.30
2014,08,23,02,33,17.40
2014,08,23,02,34,17.50
2014,08,23,02,35,17.60
2014,08,23,02,36,17.60
2014,08,23,02,37,17.70
2014,08,23,02,38,17.80
2014,08,23,02,39,17.80
2014,08,23,02,40,17.80
2014,08,23,02,41,17.80
2014,08,23,02,42,17.90
2014,08,23,02,43,17.90
2014,08,23,02,44,17.90
2014,08,23,02,45,18.00
2014,08,23,02,46,18.00
2014,08,23,02,47,18.00
2014,08,23,02,48,18.00
2014,08,23,02,49,18.00
2014,08,23,02,50,18.00
2014,08,23,02,51,17.90
2014,08,23,02,52,17.90
2014,08,23,02,53,17.90
2014,08,23,02,54,17.80
2014,08,23,02,55,17.80
2014,08,23,02,56,17.80
2014,08,23,02,57,17.80
2014,08,23,02,58,17.80
2014,08,23,02,59,17.80
2014,08,23,03,00,17.70
2014,08,23,03,01,17.70
2014,08,23,03,02,17.70
2014,08,23,03,03,17.70
2014,08,23,03,04,17.60
2014,08,23,03,05,17.60
2014,08,23,03,06,17.60
2014,08,23,03,07,17.60
2014,08,23,03,08,17.50
2014,08,23,03,09,17.50
2014,08,23,03,10,17.50
2014,08,23,03,11,17.40
2014,08,23,03,12,17.40
2014,08,23,03,13,17.40
2014,08,23,03,14,17.30
2014,08,23,03,15,17.30
2014,08,23,03,16,17.30
2014,08,23,03,17,17.30
2014,08,23,03,18,17.30
2014,08,23,03,19,17.30
2014,08,23,03,20,17.30
2014,08,23,03,21,17.20
2014,08,23,03,22,17.20
2014,08,23,03,23,17.20
2014,08,23,03,24,17.10
2014,08,23,03,25,17.10
2014,08,23,03,26,17.00
2014,08,23,03,27,17.00
2014,08,23,03,28,16.90
2014,08,23,03,29,16.90
2014,08,23,03,30,16.80
2014,08,23,03,31,16.80
2014,08,23,03,32,16.80
2014,08,23,03,33,16.80
2014,08,23,03,34,16.80
2014,08,23,03,35,16.80
2014,08,23,03,36,16.80
2014,08,23,03,37,16.90
2014,08,23,03,38,16.90
2014,08,23,03,39,16.90
2014,08,23,03,40,16.90
2014,08,23,03,41,16.80
2014,08,23,03,42,16.70
2014,08,23,03,43,16.70
2014,08,23,03,44,16.60
2014,08,23,03,45,16.50
2014,08,23,03,46,16.50
2014,08,23,03,47,16.40
2014,08,23,03,48,16.40
2014,08,23,03,49,16.40
2014,08,23,03,50,16.30
2014,08,23,03,51,16.30
2014,08,23,03,52,16.20
2014,08,23,03,53,16.20
2014,08,23,03,54,16.20
2014,08,23,03,55,16.30
2014,08,23,03,56,16.30
2014,08,23,03,57,16.30
2014,08,23,03,58,16.30
2014,08,23,03,59,16.30
2014,08,23,04,00,16.30
2014,08,23,04,01,16.30
2014,08,23,04,02,16.30
2014,08,23,04,03,16.30
2014,08,23,04,04,16.30
2014,08,23,04,05,16.30
2014,08,23,04,06,16.30
2014,08,23,04,07,16.30
2014,08,23,04,08,16.30
2014,08,23,04,09,16.30
2014,08,23,04,10,16.30
2014,08,23,04,11,16.30
2014,08,23,04,12,16.30
2014,08,23,04,13,16.20
2014,08,23,04,14,16.20
2014,08,23,04,15,16.30
2014,08,23,04,16,16.30
2014,08,23,04,17,16.30
2014,08,23,04,18,16.20
2014,08,23,04,19,16.20
2014,08,23,04,20,16.20
2014,08,23,04,21,16.20
2014,08,23,04,22,16.10
2014,08,23,04,23,16.10
2014,08,23,04,24,16.00
2014,08,23,04,25,16.00
2014,08,23,04,26,15.90
2014,08,23,04,27,15.90
2014,08,23,04,28,15.80
2014,08,23,04,29,15.80
2014,08,23,04,30,15.70
2014,08,23,04,31,15.70
2014,08,23,04,32,15.60
2014,08,23,04,33,15.50
2014,08,23,04,34,15.50
2014,08,23,04,35,15.40
2014,08,23,04,36,15.30
2014,08,23,04,37,15.30
2014,08,23,04,38,15.20
2014,08,23,04,39,15.20
2014,08,23,04,40,15.10
2014,08,23,04,41,15.10
2014,08,23,04,42,15.10
2014,08,23,04,43,15.00
2014,08,23,04,44,15.00
2014,08,23,04,45,14.90
2014,08,23,04,46,14.90
2014,08,23,04,47,14.80
2014,08,23,04,48,14.80
2014,08,23,04,49,14.80
2014,08,23,04,50,14.70
2014,08,23,04,51,14.70
2014,08,23,04,52,14.60
2014,08,23,04,53,14.60
2014,08,23,04,54,14.60
2014,08,23,04,55,14.60
2014,08,23,04,56,14.50
2014,08,23,04,57,14.50
2014,08,23,04,58,14.50
2014,08,23,04,59,14.50
2014,08,23,05,00,14.40
2014,08,23,05,01,14.40
2014,08,23,05,02,14.40
2014,08,23,05,03,14.40
2014,08,23,05,04,14.40
2014,08,23,05,05,14.40
2014,08,23,05,06,14.30
2014,08,23,05,07,14.30
2014,08,23,05,08,14.30
2014,08,23,05,09,14.30
2014,08,23,05,10,14.30
2014,08,23,05,11,14.20
2014,08,23,05,12,14.20
2014,08,23,05,13,14.20
2014,08,23,05,14,14.20
2014,08,23,05,15,14.20
2014,08,23,05,16,14.20
2014,08,23,05,17,14.20
2014,08,23,05,18,14.20
2014,08,23,05,19,14.20
2014,08,23,05,20,14.20
2014,08,23,05,21,14.30
2014,08,23,05,22,14.40
2014,08,23,05,23,14.50
2014,08,23,05,24,14.50
2014,08,23,05,25,14.60
2014,08,23,05,26,14.60
2014,08,23,05,27,14.70
2014,08,23,05,28,14.70
2014,08,23,05,29,14.70
2014,08,23,05,30,14.60
2014,08,23,05,31,14.60
2014,08,23,05,32,14.60
2014,08,23,05,33,14.60
2014,08,23,05,34,14.60
2014,08,23,05,35,14.60
2014,08,23,05,36,14.50
2014,08,23,05,37,14.50
2014,08,23,05,38,14.50
2014,08,23,05,39,14.40
2014,08,23,05,40,14.40
2014,08,23,05,41,14.40
2014,08,23,05,42,14.40
2014,08,23,05,43,14.40
2014,08,23,05,44,14.40
2014,08,23,05,45,14.40
2014,08,23,05,46,14.40
2014,08,23,05,47,14.40
2014,08,23,05,48,14.40
2014,08,23,05,49,14.40
2014,08,23,05,50,14.30
2014,08,23,05,51,14.30
2014,08,23,05,52,14.20
2014,08,23,05,53,14.20
2014,08,23,05,54,14.20
2014,08,23,05,55,14.10
2014,08,23,05,56,14.10
2014,08,23,05,57,14.00
2014,08,23,05,58,14.00
2014,08,23,05,59,13.90
2014,08,23,06,00,13.90
2014,08,23,06,01,13.90
2014,08,23,06,02,13.90
2014,08,23,06,03,13.80
2014,08,23,06,04,13.80
2014,08,23,06,05,13.80
2014,08,23,06,06,13.80
2014,08,23,06,07,13.80
2014,08,23,06,08,13.70
2014,08,23,06,09,13.70
2014,08,23,06,10,13.70
2014,08,23,06,11,13.70
2014,08,23,06,12,13.70
2014,08,23,06,13,13.70
2014,08,23,06,14,13.70
2014,08,23,06,15,13.70
2014,08,23,06,16,13.70
2014,08,23,06,17,13.70
2014,08,23,06,18,13.70
2014,08,23,06,19,13.70
2014,08,23,06,20,13.70
2014,08,23,06,21,13.70
2014,08,23,06,22,13.70
2014,08,23,06,23,13.80
2014,08,23,06,24,13.80
2014,08,23,06,25,13.80
2014,08,23,06,26,13.80
2014,08,23,06,27,13.80
2014,08,23,06,28,13.80
2014,08,23,06,29,13.80
2014,08,23,06,30,13.80
2014,08,23,06,31,13.80
2014,08,23,06,32,13.80
2014,08,23,06,33,13.80
2014,08,23,06,34,13.80
2014,08,23,06,35,13.80
2014,08,23,06,36,13.80
2014,08,23,06,37,13.80
2014,08,23,06,38,13.80
2014,08,23,06,39,13.80
2014,08,23,06,40,13.80
2014,08,23,06,41,13.80
2014,08,23,06,42,13.80
2014,08,23,06,43,13.80
2014,08,23,06,44,13.80
2014,08,23,06,45,13.80
2014,08,23,06,46,13.80
2014,08,23,06,47,13.80
2014,08,23,06,48,13.80
2014,08,23,06,49,13.80
2014,08,23,06,50,13.80
2014,08,23,06,51,13.80
2014,08,23,06,52,13.80
2014,08,23,06,53,13.80
2014,08,23,06,54,13.80
2014,08,23,06,55,13.90
2014,08,23,06,56,13.90
2014,08,23,06,57,13.90
2014,08,23,06,58,13.90
2014,08,23,06,59,13.90
2014,08,23,07,00,14.00
2014,08,23,07,01,14.00
2014,08,23,07,02,14.00
2014,08,23,07,03,14.10
2014,08,23,07,04,14.10
2014,08,23,07,05,14.10
2014,08,23,07,06,14.10
2014,08,23,07,07,14.20
2014,08,23,07,08,14.20
2014,08,23,07,09,14.20
2014,08,23,07,10,14.30
2014,08,23,07,11,14.40
2014,08,23,07,12,14.40
2014,08,23,07,13,14.50
2014,08,23,07,14,14.50
2014,08,23,07,15,14.60
2014,08,23,07,16,14.70
2014,08,23,07,17,14.70
2014,08,23,07,18,14.70
2014,08,23,07,19,14.80
2014,08,23,07,20,14.80
2014,08,23,07,21,14.80
2014,08,23,07,22,14.90
2014,08,23,07,23,14.90
2014,08,23,07,24,14.90
2014,08,23,07,25,15.00
2014,08,23,07,26,15.00
2014,08,23,07,27,15.00
2014,08,23,07,28,15.10
2014,08,23,07,29,15.10
2014,08,23,07,30,15.10
2014,08,23,07,31,15.10
2014,08,23,07,32,15.20
2014,08,23,07,33,15.20
2014,08,23,07,34,15.20
2014,08,23,07,35,15.30
2014,08,23,07,36,15.30
2014,08,23,07,37,15.40
2014,08,23,07,38,15.40
2014,08,23,07,39,15.40
2014,08,23,07,40,15.50
2014,08,23,07,41,15.50
2014,08,23,07,42,15.60
2014,08,23,07,43,15.60
2014,08,23,07,44,15.70
2014,08,23,07,45,15.70
2014,08,23,07,46,15.70
2014,08,23,07,47,15.80
2014,08,23,07,48,15.80
2014,08,23,07,49,15.80
2014,08,23,07,50,15.90
2014,08,23,07,51,15.90
2014,08,23,07,52,15.90
2014,08,23,07,53,15.90
2014,08,23,07,54,15.90
2014,08,23,07,55,16.00
2014,08,23,07,56,16.00
2014,08,23,07,57,16.00
2014,08,23,07,58,16.00
2014,08,23,07,59,16.10
2014,08,23,08,00,16.10
2014,08,23,08,01,16.10
2014,08,23,08,02,16.10
2014,08,23,08,03,16.20
2014,08,23,08,04,16.20
2014,08,23,08,05,16.20
2014,08,23,08,06,16.20
2014,08,23,08,07,16.20
2014,08,23,08,08,16.20
2014,08,23,08,09,16.30
2014,08,23,08,10,16.30
2014,08,23,08,11,16.30
2014,08,23,08,12,16.30
2014,08,23,08,13,16.30
2014,08,23,08,14,16.30
2014,08,23,08,15,16.30
2014,08,23,08,16,16.30
2014,08,23,08,17,16.30
2014,08,23,08,18,16.30
2014,08,23,08,19,16.30
2014,08,23,08,20,16.30
2014,08,23,08,21,16.40
2014,08,23,08,22,16.40
2014,08,23,08,23,16.40
2014,08,23,08,24,16.40
2014,08,23,08,25,16.40
2014,08,23,08,26,16.40
2014,08,23,08,27,16.40
2014,08,23,08,28,16.40
2014,08,23,08,29,16.40
2014,08,23,08,30,16.40
2014,08,23,08,31,16.40
2014,08,23,08,32,16.40
2014,08,23,08,33,16.40
2014,08,23,08,34,16.40
2014,08,23,08,35,16.40
2014,08,23,08,36,16.40
2014,08,23,08,37,16.40
2014,08,23,08,38,16.50
2014,08,23,08,39,16.50
2014,08,23,08,40,16.60
2014,08,23,08,41,16.60
2014,08,23,08,42,16.70
2014,08,23,08,43,16.80
2014,08,23,08,44,16.90
2014,08,23,08,45,17.00
2014,08,23,08,46,17.10
2014,08,23,08,47,17.20
2014,08,23,08,48,17.30
2014,08,23,08,49,17.40
2014,08,23,08,50,17.40
2014,08,23,08,51,17.50
2014,08,23,08,52,17.50
2014,08,23,08,53,17.60
2014,08,23,08,54,17.70
2014,08,23,08,55,17.70
2014,08,23,08,56,17.70
2014,08,23,08,57,17.70
2014,08,23,08,58,17.70
2014,08,23,08,59,17.70
2014,08,23,09,00,17.70
2014,08,23,09,01,17.60
2014,08,23,09,02,17.60
2014,08,23,09,03,17.50
2014,08,23,09,04,17.40
2014,08,23,09,05,17.30
2014,08,23,09,06,17.30
2014,08,23,09,07,17.30
2014,08,23,09,08,17.30
2014,08,23,09,09,17.20
2014,08,23,09,10,17.20
2014,08,23,09,11,17.20
2014,08,23,09,12,17.10
2014,08,23,09,13,17.10
2014,08,23,09,14,17.00
2014,08,23,09,15,16.90
2014,08,23,09,16,16.70
2014,08,23,09,17,16.70
2014,08,23,09,18,16.60
2014,08,23,09,19,16.50
2014,08,23,09,20,16.40
2014,08,23,09,21,16.40
2014,08,23,09,22,16.40
2014,08,23,09,23,16.40
2014,08,23,09,24,16.40
2014,08,23,09,25,16.50
2014,08,23,09,26,16.60
2014,08,23,09,27,16.60
2014,08,23,09,28,16.70
2014,08,23,09,29,16.70
2014,08,23,09,30,16.70
2014,08,23,09,31,16.80
2014,08,23,09,32,16.80
2014,08,23,09,33,16.80
2014,08,23,09,34,16.80
2014,08,23,09,35,16.80
2014,08,23,09,36,16.80
2014,08,23,09,37,16.80
2014,08,23,09,38,16.90
2014,08,23,09,39,16.90
2014,08,23,09,40,16.90
2014,08,23,09,41,17.00
2014,08,23,09,42,17.00
2014,08,23,09,43,17.00
2014,08,23,09,44,17.00
2014,08,23,09,45,17.00
2014,08,23,09,46,16.90
2014,08,23,09,47,17.00
2014,08,23,09,48,17.00
2014,08,23,09,49,17.00
2014,08,23,09,50,17.00
2014,08,23,09,51,17.10
2014,08,23,09,52,17.10
2014,08,23,09,53,17.20
2014,08,23,09,54,17.20
2014,08,23,09,55,17.30
2014,08,23,09,56,17.30
2014,08,23,09,57,17.20
2014,08,23,09,58,17.20
2014,08,23,09,59,17.20
2014,08,23,10,00,17.20
2014,08,23,10,01,17.20
2014,08,23,10,02,17.20
2014,08,23,10,03,17.30
2014,08,23,10,04,17.30
2014,08,23,10,05,17.30
2014,08,23,10,06,17.30
2014,08,23,10,07,17.40
2014,08,23,10,08,17.40
2014,08,23,10,09,17.50
2014,08,23,10,10,17.50
2014,08,23,10,11,17.50
2014,08,23,10,12,17.60
2014,08,23,10,13,17.60
2014,08,23,10,14,17.60
2014,08,23,10,15,17.70
2014,08,23,10,16,17.80
2014,08,23,10,17,17.80
2014,08,23,10,18,17.90
2014,08,23,10,19,18.00
2014,08,23,10,20,18.10
2014,08,23,10,21,18.10
2014,08,23,10,22,18.20
2014,08,23,10,23,18.30
2014,08,23,10,24,18.40
2014,08,23,10,25,18.40
2014,08,23,10,26,18.40
2014,08,23,10,27,18.50
2014,08,23,10,28,18.40
2014,08,23,10,29,18.40
2014,08,23,10,30,18.40
2014,08,23,10,31,18.50
2014,08,23,10,32,18.50
2014,08,23,10,33,18.50
2014,08,23,10,34,18.50
2014,08,23,10,35,18.60
2014,08,23,10,36,18.60
2014,08,23,10,37,18.60
2014,08,23,10,38,18.70
2014,08,23,10,39,18.60
2014,08,23,10,40,18.60
2014,08,23,10,41,18.50
2014,08,23,10,42,18.40
2014,08,23,10,43,18.30
2014,08,23,10,44,18.30
2014,08,23,10,45,18.20
2014,08,23,10,46,18.20
2014,08,23,10,47,18.20
2014,08,23,10,48,18.20
2014,08,23,10,49,18.10
2014,08,23,10,50,18.10
2014,08,23,10,51,18.10
2014,08,23,10,52,18.10
2014,08,23,10,53,18.20
2014,08,23,10,54,18.30
2014,08,23,10,55,18.30
2014,08,23,10,56,18.40
2014,08,23,10,57,18.50
2014,08,23,10,58,18.60
2014,08,23,10,59,18.60
2014,08,23,11,00,18.70
2014,08,23,11,01,18.80
2014,08,23,11,02,18.80
2014,08,23,11,03,18.80
2014,08,23,11,04,18.80
2014,08,23,11,05,18.90
2014,08,23,11,06,18.90
2014,08,23,11,07,18.80
2014,08,23,11,08,18.80
2014,08,23,11,09,18.80
2014,08,23,11,10,18.80
2014,08,23,11,11,18.80
2014,08,23,11,12,18.90
2014,08,23,11,13,18.90
2014,08,23,11,14,19.00
2014,08,23,11,15,19.00
2014,08,23,11,16,19.10
2014,08,23,11,17,19.10
2014,08,23,11,18,19.10
2014,08,23,11,19,19.10
2014,08,23,11,20,19.10
2014,08,23,11,21,19.10
2014,08,23,11,22,19.10
2014,08,23,11,23,19.20
2014,08,23,11,24,19.30
2014,08,23,11,25,19.30
2014,08,23,11,26,19.40
2014,08,23,11,27,19.40
2014,08,23,11,28,19.40
2014,08,23,11,29,19.50
2014,08,23,11,30,19.60
2014,08,23,11,31,19.70
2014,08,23,11,32,19.80
2014,08,23,11,33,20.00
2014,08,23,11,34,20.10
2014,08,23,11,35,20.20
2014,08,23,11,36,20.20
2014,08,23,11,37,20.30
2014,08,23,11,38,20.40
2014,08,23,11,39,20.60
2014,08,23,11,40,20.70
2014,08,23,11,41,20.80
2014,08,23,11,42,20.90
2014,08,23,11,43,21.00
2014,08,23,11,44,21.10
2014,08,23,11,45,21.10
2014,08,23,11,46,21.20
2014,08,23,11,47,21.20
2014,08,23,11,48,21.30
2014,08,23,11,49,21.30
2014,08,23,11,50,21.40
2014,08,23,11,51,21.40
2014,08,23,11,52,21.30
2014,08,23,11,53,21.30
2014,08,23,11,54,21.30
2014,08,23,11,55,21.20
2014,08,23,11,56,21.10
2014,08,23,11,57,21.10
2014,08,23,11,58,21.00
2014,08,23,11,59,20.90
2014,08,23,12,00,20.80
2014,08,23,12,01,20.90
2014,08,23,12,02,20.90
2014,08,23,12,03,20.90
2014,08,23,12,04,20.90
2014,08,23,12,05,20.90
2014,08,23,12,06,20.90
2014,08,23,12,07,20.90
2014,08,23,12,08,20.90
2014,08,23,12,09,20.90
2014,08,23,12,10,20.80
2014,08,23,12,11,20.80
2014,08,23,12,12,20.80
2014,08,23,12,13,20.80
2014,08,23,12,14,20.90
2014,08,23,12,15,20.90
2014,08,23,12,16,21.00
2014,08,23,12,17,21.00
2014,08,23,12,18,21.10
2014,08,23,12,19,21.20
2014,08,23,12,20,21.20
2014,08,23,12,21,21.20
2014,08,23,12,22,21.10
2014,08,23,12,23,21.10
2014,08,23,12,24,21.10
2014,08,23,12,25,21.20
2014,08,23,12,26,21.30
2014,08,23,12,27,21.40
2014,08,23,12,28,21.40
2014,08,23,12,29,21.50
2014,08,23,12,30,21.50
2014,08,23,12,31,21.50
2014,08,23,12,32,21.50
2014,08,23,12,33,21.50
2014,08,23,12,34,21.60
2014,08,23,12,35,21.60
2014,08,23,12,36,21.70
2014,08,23,12,37,21.70
2014,08,23,12,38,21.70
2014,08,23,12,39,21.70
2014,08,23,12,40,21.80
2014,08,23,12,41,21.90
2014,08,23,12,42,22.00
2014,08,23,12,43,22.10
2014,08,23,12,44,22.10
2014,08,23,12,45,22.20
2014,08,23,12,46,22.20
2014,08,23,12,47,22.20
2014,08,23,12,48,22.10
2014,08,23,12,49,22.10
2014,08,23,12,50,22.00
2014,08,23,12,51,22.00
2014,08,23,12,52,22.00
2014,08,23,12,53,22.00
2014,08,23,12,54,22.00
2014,08,23,12,55,22.10
2014,08,23,12,56,22.10
2014,08,23,12,57,22.20
2014,08,23,12,58,22.20
2014,08,23,12,59,22.30
2014,08,23,13,00,22.30
2014,08,23,13,01,22.40
2014,08,23,13,02,22.50
2014,08,23,13,03,22.60
2014,08,23,13,04,22.50
2014,08,23,13,05,22.40
2014,08,23,13,06,22.40
2014,08,23,13,07,22.30
2014,08,23,13,08,22.40
2014,08,23,13,09,22.40
2014,08,23,13,10,22.40
2014,08,23,13,11,22.40
2014,08,23,13,12,22.40
2014,08,23,13,13,22.50
2014,08,23,13,14,22.50
2014,08,23,13,15,22.50
2014,08,23,13,16,22.50
2014,08,23,13,17,22.40
2014,08,23,13,18,22.40
2014,08,23,13,19,22.40
2014,08,23,13,20,22.40
2014,08,23,13,21,22.50
2014,08,23,13,22,22.60
2014,08,23,13,23,22.60
2014,08,23,13,24,22.60
2014,08,23,13,25,22.60
2014,08,23,13,26,22.60
2014,08,23,13,27,22.50
2014,08,23,13,28,22.40
2014,08,23,13,29,22.40
2014,08,23,13,30,22.30
2014,08,23,13,31,22.30
2014,08,23,13,32,22.30
2014,08,23,13,33,22.30
2014,08,23,13,34,22.20
2014,08,23,13,35,22.20
2014,08,23,13,36,22.10
2014,08,23,13,37,22.10
2014,08,23,13,38,22.00
2014,08,23,13,39,22.00
2014,08,23,13,40,22.00
2014,08,23,13,41,22.00
2014,08,23,13,42,21.90
2014,08,23,13,43,21.90
2014,08,23,13,44,21.80
2014,08,23,13,45,21.80
2014,08,23,13,46,21.70
2014,08,23,13,47,21.70
2014,08,23,13,48,21.70
2014,08,23,13,49,21.70
2014,08,23,13,50,21.80
2014,08,23,13,51,21.90
2014,08,23,13,52,21.90
2014,08,23,13,53,22.00
2014,08,23,13,54,22.10
2014,08,23,13,55,22.20
2014,08,23,13,56,22.20
2014,08,23,13,57,22.30
2014,08,23,13,58,22.30
2014,08,23,13,59,22.30
2014,08,23,14,00,22.20
2014,08,23,14,01,22.20
2014,08,23,14,02,22.20
2014,08,23,14,03,22.20
2014,08,23,14,04,22.30
2014,08,23,14,05,22.30
2014,08,23,14,06,22.30
2014,08,23,14,07,22.40
2014,08,23,14,08,22.40
2014,08,23,14,09,22.40
2014,08,23,14,10,22.40
2014,08,23,14,11,22.50
2014,08,23,14,12,22.60
2014,08,23,14,13,22.60
2014,08,23,14,14,22.60
2014,08,23,14,15,22.70
2014,08,23,14,16,22.70
2014,08,23,14,17,22.80
2014,08,23,14,18,22.80
2014,08,23,14,19,22.80
2014,08,23,14,20,23.00
2014,08,23,14,21,23.00
2014,08,23,14,22,23.10
2014,08,23,14,23,23.20
2014,08,23,14,24,23.20
2014,08,23,14,25,23.20
2014,08,23,14,26,23.20
2014,08,23,14,27,23.20
2014,08,23,14,28,23.10
2014,08,23,14,29,23.10
2014,08,23,14,30,23.00
2014,08,23,14,31,23.00
2014,08,23,14,32,22.90
2014,08,23,14,33,22.80
2014,08,23,14,34,22.80
2014,08,23,14,35,22.90
2014,08,23,14,36,22.90
2014,08,23,14,37,22.80
2014,08,23,14,38,22.80
2014,08,23,14,39,22.80
2014,08,23,14,40,22.80
2014,08,23,14,41,22.80
2014,08,23,14,42,22.80
2014,08,23,14,43,22.90
2014,08,23,14,44,22.90
2014,08,23,14,45,22.90
2014,08,23,14,46,22.90
2014,08,23,14,47,22.80
2014,08,23,14,48,22.80
2014,08,23,14,49,22.80
2014,08,23,14,50,22.90
2014,08,23,14,51,22.90
2014,08,23,14,52,22.90
2014,08,23,14,53,23.00
2014,08,23,14,54,23.10
2014,08,23,14,55,23.10
2014,08,23,14,56,23.00
2014,08,23,14,57,23.00
2014,08,23,14,58,22.80
2014,08,23,14,59,22.80
2014,08,23,15,00,22.80
2014,08,23,15,01,22.80
2014,08,23,15,02,22.90
2014,08,23,15,03,22.90
2014,08,23,15,04,23.00
2014,08,23,15,05,23.00
2014,08,23,15,06,23.00
2014,08,23,15,07,22.90
2014,08,23,15,08,22.90
2014,08,23,15,09,22.90
2014,08,23,15,10,22.90
2014,08,23,15,11,22.80
2014,08,23,15,12,22.90
2014,08,23,15,13,22.90
2014,08,23,15,14,22.90
2014,08,23,15,15,22.90
2014,08,23,15,16,22.90
2014,08,23,15,17,22.90
2014,08,23,15,18,23.00
2014,08,23,15,19,23.00
2014,08,23,15,20,23.10
2014,08,23,15,21,23.20
2014,08,23,15,22,23.20
2014,08,23,15,23,23.20
2014,08,23,15,24,23.20
2014,08,23,15,25,23.30
2014,08,23,15,26,23.30
2014,08,23,15,27,23.30
2014,08,23,15,28,23.30
2014,08,23,15,29,23.30
2014,08,23,15,30,23.40
2014,08,23,15,31,23.40
2014,08,23,15,32,23.40
2014,08,23,15,33,23.50
2014,08,23,15,34,23.50
2014,08,23,15,35,23.40
2014,08,23,15,36,23.40
2014,08,23,15,37,23.50
2014,08,23,15,38,23.50
2014,08,23,15,39,23.60
2014,08,23,15,40,23.60
2014,08,23,15,41,23.60
2014,08,23,15,42,23.70
2014,08,23,15,43,23.80
2014,08,23,15,44,23.90
2014,08,23,15,45,24.00
2014,08,23,15,46,24.10
2014,08,23,15,47,24.20
2014,08,23,15,48,24.20
2014,08,23,15,49,24.30
2014,08,23,15,50,24.30
2014,08,23,15,51,24.30
2014,08,23,15,52,24.30
2014,08,23,15,53,24.30
2014,08,23,15,54,24.30
2014,08,23,15,55,24.40
2014,08,23,15,56,24.40
2014,08,23,15,57,24.40
2014,08,23,15,58,24.40
2014,08,23,15,59,24.40
2014,08,23,16,00,24.30
2014,08,23,16,01,24.30
2014,08,23,16,02,24.20
2014,08,23,16,03,24.10
2014,08,23,16,04,24.10
2014,08,23,16,05,24.10
2014,08,23,16,06,24.20
2014,08,23,16,07,24.20
2014,08,23,16,08,24.30
2014,08,23,16,09,24.30
2014,08,23,16,10,24.20
2014,08,23,16,11,24.20
2014,08,23,16,12,24.20
2014,08,23,16,13,24.10
2014,08,23,16,14,24.10
2014,08,23,16,15,24.00
2014,08,23,16,16,23.90
2014,08,23,16,17,23.90
2014,08,23,16,18,23.90
2014,08,23,16,19,23.90
2014,08,23,16,20,23.90
2014,08,23,16,21,23.90
2014,08,23,16,22,23.90
2014,08,23,16,23,24.00
2014,08,23,16,24,24.00
2014,08,23,16,25,24.10
2014,08,23,16,26,24.10
2014,08,23,16,27,24.20
2014,08,23,16,28,24.30
2014,08,23,16,29,24.30
2014,08,23,16,30,24.40
2014,08,23,16,31,24.40
2014,08,23,16,32,24.50
2014,08,23,16,33,24.50
2014,08,23,16,34,24.50
2014,08,23,16,35,24.50
2014,08,23,16,36,24.50
2014,08,23,16,37,24.50
2014,08,23,16,38,24.50
2014,08,23,16,39,24.40
2014,08,23,16,40,24.40
2014,08,23,16,41,24.40
2014,08,23,16,42,24.40
2014,08,23,16,43,24.40
2014,08,23,16,44,24.30
2014,08,23,16,45,24.30
2014,08,23,16,46,24.30
2014,08,23,16,47,24.30
2014,08,23,16,48,24.40
2014,08,23,16,49,24.40
2014,08,23,16,50,24.50
2014,08,23,16,51,24.60
2014,08,23,16,52,24.60
2014,08,23,16,53,24.70
2014,08,23,16,54,24.80
2014,08,23,16,55,24.80
2014,08,23,16,56,24.80
2014,08,23,16,57,24.80
2014,08,23,16,58,24.80
2014,08,23,16,59,24.80
2014,08,23,17,00,24.70
2014,08,23,17,01,24.70
2014,08,23,17,02,24.80
2014,08,23,17,03,24.80
2014,08,23,17,04,24.80
2014,08,23,17,05,24.90
2014,08,23,17,06,24.90
2014,08,23,17,07,24.90
2014,08,23,17,08,24.90
2014,08,23,17,09,24.90
2014,08,23,17,10,24.90
2014,08,23,17,11,24.90
2014,08,23,17,12,24.90
2014,08,23,17,13,24.90
2014,08,23,17,14,24.80
2014,08,23,17,15,24.80
2014,08,23,17,16,24.70
2014,08,23,17,17,24.70
2014,08,23,17,18,24.60
2014,08,23,17,19,24.60